Location: Lussas
(44.6119°N, 4.4726°E)
Time: 16:32:58
(UTC+00:00)

CENTAUR R/B - Pass Details

Date: 26 November 2020
Orbit: 750 x 1438 km, 63.4° (Epoch: 11 January)

Event Time Altitude Azimuth Distance (km) Brightness Sun altitude
Exits shadow 04:32:26 33° 317° (NW) 2,100 3.8 -24.6°
Maximum altitude 04:36:45 79° 237° (WSW) 1,415 3.1 -23.8°
Drops below altitude 10° 04:45:37 10° 152° (SSE) 3,539 5.9 -22.2°
Sets 04:48:35 0° 151° (SSE) 4,511 6.5 -21.7°
